Date String (YYYY-MM-DD hh:mm:ss) UTC,Instrument flags,absolute air pressure of the measurement (hPa),sample flow rate (lpm),inlet stack bypass flow (lpm),air temperature of the measurement (°C),ambient temperature measured by the external sensor (°C),aerosol sample conditioner tube jacket temperature (°C),OPC LED temperature (°C),internal box temperature (°C),relative humidity of the measurement (%),span deviation,mass concentration of particles derived from Lorenz-Mie calculation of OPC scattering (μg/m³),mass concentration of particles derived from Lorenz-Mie calculation of OPC scattering (μg/m³),mass concentration of particles derived from Lorenz-Mie calculation of OPC scattering (μg/m³)
DateTimeUTC,F1_M11,P_M11,Q1_M11,Q2_M11,T1_M11,T2_M11,T3_M11,T4_M11,T5_M11,U1_M11,ZSPAN_M11,X2_M11,X0_M11,X1_M11
2023-09-24 23:00:00,SystemResetWarning,0833.0,5.01,000.00,028.0,024.4,000.0,036.3,029.3,11.2,0000.0,0003.70,0008.60,0003.16
2023-09-24 23:01:00,SystemResetWarning,0832.9,5.00,000.00,027.9,024.8,000.0,036.3,029.3,11.5,0000.0,0003.69,0009.06,0003.16
2023-09-24 23:02:00,SystemResetWarning,0832.9,5.00,000.00,027.9,025.2,000.0,036.3,029.4,11.6,0000.0,0003.69,0008.95,0003.17
2023-09-24 23:03:00,SystemResetWarning,0833.0,4.99,000.00,027.9,025.6,000.0,036.3,029.5,11.8,0000.0,0003.71,0008.94,0003.17
2023-09-24 23:04:00,SystemResetWarning,0833.2,4.99,000.00,028.0,026.0,000.0,036.3,029.6,11.7,0000.0,0003.71,0009.56,0003.16
2023-09-24 23:05:00,SystemResetWarning,0833.4,5.00,000.00,028.0,026.3,000.0,036.3,029.7,11.5,0000.0,0003.71,0009.83,0003.15
2023-09-24 23:06:00,SystemResetWarning,0833.1,5.01,000.00,028.1,026.6,000.0,036.3,029.8,11.4,0000.0,0003.66,0010.13,0003.15
2023-09-24 23:07:00,SystemResetWarning,0833.0,4.99,000.00,028.1,026.9,000.0,036.3,029.8,11.6,0000.0,0003.65,0009.74,0003.16
2023-09-24 23:08:00,SystemResetWarning,0833.0,4.99,000.00,028.2,027.1,000.0,036.4,029.9,11.7,0000.0,0003.61,0009.66,0003.15
2023-09-24 23:09:00,SystemResetWarning,0833.1,5.00,000.00,028.2,027.3,000.0,036.4,030.0,11.6,0000.0,0003.62,0009.73,0003.16
2023-09-24 23:10:00,SystemResetWarning,0833.0,5.01,000.00,028.3,026.5,000.0,036.4,029.8,11.6,0000.0,0003.62,0009.96,0003.16
2023-09-24 23:11:00,SystemResetWarning,0833.0,4.98,000.00,028.1,024.7,000.0,036.3,029.4,11.7,0000.0,0003.67,0010.67,0003.16
2023-09-24 23:12:00,SystemResetWarning,0833.0,5.02,000.00,028.0,024.1,000.0,036.3,029.3,11.7,0000.0,0003.65,0010.72,0003.16
2023-09-24 23:13:00,SystemResetWarning,0833.0,5.00,000.00,027.9,024.4,000.0,036.3,029.3,11.9,0000.0,0003.64,0010.75,0003.15
2023-09-24 23:14:00,SystemResetWarning,0833.2,4.99,000.00,027.9,024.7,000.0,036.3,029.3,12.0,0000.0,0003.64,0010.75,0003.16
2023-09-24 23:15:00,SystemResetWarning,0833.3,5.01,000.00,027.9,025.2,000.0,036.3,029.4,11.9,0000.0,0003.63,0010.38,0003.15
2023-09-24 23:16:00,SystemResetWarning,0833.0,5.00,000.00,027.9,025.6,000.0,036.3,029.4,11.7,0000.0,0003.61,0010.50,0003.15
2023-09-24 23:17:00,SystemResetWarning,0833.0,4.99,000.00,027.9,026.0,000.0,036.3,029.5,11.8,0000.0,0003.60,0010.31,0003.14
2023-09-24 23:18:00,SystemResetWarning,0833.2,5.00,000.00,028.0,026.3,000.0,036.3,029.7,11.9,0000.0,0003.63,0010.53,0003.14
2023-09-24 23:19:00,SystemResetWarning,0833.2,5.00,000.00,028.0,026.6,000.0,036.3,029.7,12.1,0000.0,0003.66,0010.87,0003.13
2023-09-24 23:20:00,SystemResetWarning,0833.3,5.01,000.00,028.1,026.8,000.0,036.3,029.8,12.3,0000.0,0003.65,0011.55,0003.11
2023-09-24 23:21:00,SystemResetWarning,0833.1,5.01,000.00,028.1,027.1,000.0,036.4,029.9,11.9,0000.0,0003.64,0011.21,0003.11
2023-09-24 23:22:00,SystemResetWarning,0833.2,5.00,000.00,028.2,027.2,000.0,036.4,030.0,12.0,0000.0,0003.60,0010.45,0003.10
2023-09-24 23:23:00,SystemResetWarning,0833.2,4.99,000.00,028.3,027.4,000.0,036.4,030.1,12.2,0000.0,0003.60,0010.06,0003.09
2023-09-24 23:24:00,SystemResetWarning,0833.1,4.99,000.00,028.3,026.3,000.0,036.4,029.9,12.0,0000.0,0003.59,0009.78,0003.08
2023-09-24 23:25:00,SystemResetWarning,0833.1,5.00,000.00,028.2,024.5,000.0,036.3,029.5,12.0,0000.0,0003.55,0009.71,0003.07
2023-09-24 23:26:00,SystemResetWarning,0833.2,5.01,000.00,028.0,024.2,000.0,036.3,029.3,12.2,0000.0,0003.52,0009.23,0003.07
2023-09-24 23:27:00,SystemResetWarning,0833.2,5.01,000.00,027.9,024.4,000.0,036.3,029.3,12.3,0000.8,0003.51,0008.52,0003.08
2023-09-24 23:28:00,SystemResetWarning,0833.2,5.00,000.00,027.9,024.8,000.0,036.3,029.3,12.4,0000.9,0003.51,0008.18,0003.09
2023-09-24 23:29:00,SystemResetWarning,0833.2,5.00,000.00,027.9,025.2,000.0,036.3,029.4,12.5,0000.3,0003.49,0008.46,0003.07
2023-09-24 23:30:00,SystemResetWarning,0833.2,5.00,000.00,027.9,025.6,000.0,036.3,029.5,12.3,0000.0,0003.45,0008.86,0003.06
2023-09-24 23:31:00,SystemResetWarning,0833.2,5.00,000.00,028.0,026.0,000.0,036.3,029.6,12.5,0000.0,0003.44,0007.99,0003.06
2023-09-24 23:32:00,SystemResetWarning,0833.2,4.99,000.00,028.0,026.4,000.0,036.3,029.7,12.3,0000.0,0003.42,0007.87,0003.04
2023-09-24 23:33:00,SystemResetWarning,0833.2,4.99,000.00,028.1,026.6,000.0,036.3,029.8,12.3,0000.0,0003.42,0007.84,0003.03
2023-09-24 23:34:00,SystemResetWarning,0833.3,5.00,000.00,028.1,026.9,000.0,036.3,029.9,12.3,0000.0,0003.41,0007.95,0003.03
2023-09-24 23:35:00,SystemResetWarning,0833.2,4.99,000.00,028.2,027.1,000.0,036.4,029.9,12.2,0000.0,0003.42,0008.78,0003.03
2023-09-24 23:36:00,SystemResetWarning,0833.3,5.00,000.00,028.2,027.3,000.0,036.4,030.0,12.1,0000.0,0003.45,0009.36,0003.02
2023-09-24 23:37:00,SystemResetWarning,0833.3,5.00,000.00,028.3,027.4,000.0,036.4,030.1,11.9,0000.0,0003.47,0010.19,0003.02
2023-09-24 23:38:00,SystemResetWarning,0833.3,4.99,000.00,028.3,027.1,000.0,036.4,030.0,12.0,0000.0,0003.48,0010.20,0003.00
2023-09-24 23:39:00,SystemResetWarning,0833.3,5.00,000.00,028.2,025.3,000.0,036.4,029.5,12.2,0000.0,0003.49,0010.45,0002.99
2023-09-24 23:40:00,SystemResetWarning,0833.3,5.00,000.00,028.1,024.3,000.0,036.3,029.3,11.9,0000.0,0003.47,0010.66,0002.97
2023-09-24 23:41:00,SystemResetWarning,0833.2,5.01,000.00,028.0,024.4,000.0,036.3,029.3,11.8,0000.0,0003.47,0009.73,0002.98
2023-09-24 23:42:00,SystemResetWarning,0833.3,5.01,000.00,027.9,024.7,000.0,036.3,029.3,12.1,0000.0,0003.50,0009.64,0002.98
2023-09-24 23:43:00,SystemResetWarning,0833.3,4.99,000.00,027.9,025.1,000.0,036.3,029.4,12.4,0000.0,0003.52,0009.84,0002.98
2023-09-24 23:44:00,SystemResetWarning,0833.4,5.00,000.00,027.9,025.5,000.0,036.3,029.5,12.7,0000.0,0003.52,0010.13,0003.00
2023-09-24 23:45:00,SystemResetWarning,0833.4,5.01,000.00,028.0,025.9,000.0,036.3,029.6,12.1,0000.0,0003.55,0010.15,0002.99
2023-09-24 23:46:00,SystemResetWarning,0833.4,4.99,000.00,028.0,026.2,000.0,036.3,029.6,11.9,0000.0,0003.53,0009.51,0002.98
2023-09-24 23:47:00,SystemResetWarning,0833.4,4.99,000.00,028.1,026.6,000.0,036.3,029.7,11.9,0000.0,0003.53,0008.81,0002.97
2023-09-24 23:48:00,SystemResetWarning,0833.4,5.00,000.00,028.1,026.8,000.0,036.4,029.8,11.7,0000.0,0003.54,0008.12,0002.96
2023-09-24 23:49:00,SystemResetWarning,0833.4,5.01,000.00,028.2,027.0,000.0,036.4,029.9,11.6,0000.0,0003.56,0008.28,0002.96
2023-09-24 23:50:00,SystemResetWarning,0833.4,5.00,000.00,028.2,027.2,000.0,036.4,030.0,11.6,0000.0,0003.60,0008.21,0002.96
2023-09-24 23:51:00,SystemResetWarning,0833.4,5.00,000.00,028.3,027.4,000.0,036.4,030.1,11.6,0000.0,0003.60,0007.63,0002.96
2023-09-24 23:52:00,SystemResetWarning,0833.4,4.99,000.00,028.3,026.8,000.0,036.4,030.0,11.7,0000.0,0003.60,0007.55,0002.95
2023-09-24 23:53:00,SystemResetWarning,0833.4,5.01,000.00,028.2,024.9,000.0,036.4,029.6,12.2,0000.0,0003.61,0007.55,0002.96
2023-09-24 23:54:00,SystemResetWarning,0833.4,5.01,000.00,028.1,024.1,000.0,036.3,029.4,12.5,0000.0,0003.62,0007.59,0002.96
2023-09-24 23:55:00,SystemResetWarning,0833.4,5.01,000.00,028.0,024.3,000.0,036.3,029.3,12.8,0000.0,0003.67,0007.84,0002.96
2023-09-24 23:56:00,SystemResetWarning,0833.4,5.00,000.00,027.9,024.7,000.0,036.3,029.3,12.6,0000.0,0003.65,0007.80,0002.96
2023-09-24 23:57:00,SystemResetWarning,0833.4,5.00,000.00,027.9,025.1,000.0,036.3,029.4,12.5,0000.0,0003.70,0008.03,0002.97
2023-09-24 23:58:00,SystemResetWarning,0833.4,5.00,000.00,027.9,025.5,000.0,036.3,029.5,12.6,0000.0,0003.70,0008.02,0002.98
2023-09-24 23:59:00,SystemResetWarning,0833.4,5.00,000.00,028.0,025.9,000.0,036.3,029.6,12.1,0000.0,0003.69,0007.99,0002.99
